Year,Month,Day,Hour,Minute,Value (Times are PST for temperature in C)
2014,07,11,00,00,15.30
2014,07,11,00,01,15.30
2014,07,11,00,02,15.30
2014,07,11,00,03,15.20
2014,07,11,00,04,15.20
2014,07,11,00,05,15.20
2014,07,11,00,06,15.20
2014,07,11,00,07,15.20
2014,07,11,00,08,15.10
2014,07,11,00,09,15.10
2014,07,11,00,10,15.10
2014,07,11,00,11,15.10
2014,07,11,00,12,15.10
2014,07,11,00,13,15.00
2014,07,11,00,14,15.00
2014,07,11,00,15,15.00
2014,07,11,00,16,14.90
2014,07,11,00,17,14.90
2014,07,11,00,18,14.90
2014,07,11,00,19,14.90
2014,07,11,00,20,14.90
2014,07,11,00,21,14.80
2014,07,11,00,22,14.80
2014,07,11,00,23,14.80
2014,07,11,00,24,14.80
2014,07,11,00,25,14.80
2014,07,11,00,26,14.70
2014,07,11,00,27,14.70
2014,07,11,00,28,14.70
2014,07,11,00,29,14.70
2014,07,11,00,30,14.70
2014,07,11,00,31,14.70
2014,07,11,00,32,14.60
2014,07,11,00,33,14.60
2014,07,11,00,34,14.60
2014,07,11,00,35,14.60
2014,07,11,00,36,14.60
2014,07,11,00,37,14.60
2014,07,11,00,38,14.60
2014,07,11,00,39,14.60
2014,07,11,00,40,14.60
2014,07,11,00,41,14.50
2014,07,11,00,42,14.50
2014,07,11,00,43,14.50
2014,07,11,00,44,14.50
2014,07,11,00,45,14.40
2014,07,11,00,46,14.40
2014,07,11,00,47,14.40
2014,07,11,00,48,14.40
2014,07,11,00,49,14.40
2014,07,11,00,50,14.40
2014,07,11,00,51,14.40
2014,07,11,00,52,14.30
2014,07,11,00,53,14.30
2014,07,11,00,54,14.30
2014,07,11,00,55,14.30
2014,07,11,00,56,14.30
2014,07,11,00,57,14.30
2014,07,11,00,58,14.30
2014,07,11,00,59,14.30
2014,07,11,01,00,14.30
2014,07,11,01,01,14.30
2014,07,11,01,02,14.20
2014,07,11,01,03,14.20
2014,07,11,01,04,14.20
2014,07,11,01,05,14.20
2014,07,11,01,06,14.20
2014,07,11,01,07,14.20
2014,07,11,01,08,14.20
2014,07,11,01,09,14.10
2014,07,11,01,10,14.10
2014,07,11,01,11,14.10
2014,07,11,01,12,14.10
2014,07,11,01,13,14.10
2014,07,11,01,14,14.10
2014,07,11,01,15,14.10
2014,07,11,01,16,14.10
2014,07,11,01,17,14.00
2014,07,11,01,18,14.00
2014,07,11,01,19,14.00
2014,07,11,01,20,14.00
2014,07,11,01,21,13.90
2014,07,11,01,22,13.90
2014,07,11,01,23,13.90
2014,07,11,01,24,13.90
2014,07,11,01,25,13.90
2014,07,11,01,26,13.90
2014,07,11,01,27,13.90
2014,07,11,01,28,13.90
2014,07,11,01,29,13.90
2014,07,11,01,30,13.80
2014,07,11,01,31,13.80
2014,07,11,01,32,13.80
2014,07,11,01,33,13.80
2014,07,11,01,34,13.80
2014,07,11,01,35,13.80
2014,07,11,01,36,13.80
2014,07,11,01,37,13.80
2014,07,11,01,38,13.80
2014,07,11,01,39,13.70
2014,07,11,01,40,13.70
2014,07,11,01,41,13.70
2014,07,11,01,42,13.70
2014,07,11,01,43,13.70
2014,07,11,01,44,13.70
2014,07,11,01,45,13.60
2014,07,11,01,46,13.60
2014,07,11,01,47,13.60
2014,07,11,01,48,13.60
2014,07,11,01,49,13.60
2014,07,11,01,50,13.60
2014,07,11,01,51,13.50
2014,07,11,01,52,13.50
2014,07,11,01,53,13.50
2014,07,11,01,54,13.50
2014,07,11,01,55,13.40
2014,07,11,01,56,13.40
2014,07,11,01,57,13.40
2014,07,11,01,58,13.40
2014,07,11,01,59,13.40
2014,07,11,02,00,13.40
2014,07,11,02,01,13.40
2014,07,11,02,02,13.40
2014,07,11,02,03,13.30
2014,07,11,02,04,13.30
2014,07,11,02,05,13.30
2014,07,11,02,06,13.30
2014,07,11,02,07,13.30
2014,07,11,02,08,13.30
2014,07,11,02,09,13.30
2014,07,11,02,10,13.30
2014,07,11,02,11,13.30
2014,07,11,02,12,13.30
2014,07,11,02,13,13.20
2014,07,11,02,14,13.20
2014,07,11,02,15,13.20
2014,07,11,02,16,13.20
2014,07,11,02,17,13.20
2014,07,11,02,18,13.20
2014,07,11,02,19,13.20
2014,07,11,02,20,13.20
2014,07,11,02,21,13.20
2014,07,11,02,22,13.20
2014,07,11,02,23,13.20
2014,07,11,02,24,13.20
2014,07,11,02,25,13.20
2014,07,11,02,26,13.20
2014,07,11,02,27,13.20
2014,07,11,02,28,13.20
2014,07,11,02,29,13.10
2014,07,11,02,30,13.10
2014,07,11,02,31,13.10
2014,07,11,02,32,13.10
2014,07,11,02,33,13.10
2014,07,11,02,34,13.10
2014,07,11,02,35,13.10
2014,07,11,02,36,13.10
2014,07,11,02,37,13.10
2014,07,11,02,38,13.10
2014,07,11,02,39,13.10
2014,07,11,02,40,13.10
2014,07,11,02,41,13.00
2014,07,11,02,42,13.00
2014,07,11,02,43,13.00
2014,07,11,02,44,13.00
2014,07,11,02,45,13.00
2014,07,11,02,46,13.00
2014,07,11,02,47,12.90
2014,07,11,02,48,12.90
2014,07,11,02,49,12.90
2014,07,11,02,50,12.90
2014,07,11,02,51,12.90
2014,07,11,02,52,12.90
2014,07,11,02,53,12.90
2014,07,11,02,54,12.90
2014,07,11,02,55,12.90
2014,07,11,02,56,12.90
2014,07,11,02,57,12.80
2014,07,11,02,58,12.80
2014,07,11,02,59,12.80
2014,07,11,03,00,12.80
2014,07,11,03,01,12.80
2014,07,11,03,02,12.80
2014,07,11,03,03,12.80
2014,07,11,03,04,12.80
2014,07,11,03,05,12.80
2014,07,11,03,06,12.70
2014,07,11,03,07,12.70
2014,07,11,03,08,12.70
2014,07,11,03,09,12.70
2014,07,11,03,10,12.70
2014,07,11,03,11,12.70
2014,07,11,03,12,12.70
2014,07,11,03,13,12.70
2014,07,11,03,14,12.70
2014,07,11,03,15,12.70
2014,07,11,03,16,12.70
2014,07,11,03,17,12.70
2014,07,11,03,18,12.70
2014,07,11,03,19,12.70
2014,07,11,03,20,12.60
2014,07,11,03,21,12.60
2014,07,11,03,22,12.60
2014,07,11,03,23,12.60
2014,07,11,03,24,12.60
2014,07,11,03,25,12.60
2014,07,11,03,26,12.60
2014,07,11,03,27,12.60
2014,07,11,03,28,12.60
2014,07,11,03,29,12.60
2014,07,11,03,30,12.60
2014,07,11,03,31,12.60
2014,07,11,03,32,12.60
2014,07,11,03,33,12.50
2014,07,11,03,34,12.50
2014,07,11,03,35,12.50
2014,07,11,03,36,12.50
2014,07,11,03,37,12.50
2014,07,11,03,38,12.40
2014,07,11,03,39,12.40
2014,07,11,03,40,12.40
2014,07,11,03,41,12.40
2014,07,11,03,42,12.40
2014,07,11,03,43,12.40
2014,07,11,03,44,12.40
2014,07,11,03,45,12.40
2014,07,11,03,46,12.40
2014,07,11,03,47,12.30
2014,07,11,03,48,12.30
2014,07,11,03,49,12.30
2014,07,11,03,50,12.30
2014,07,11,03,51,12.30
2014,07,11,03,52,12.30
2014,07,11,03,53,12.30
2014,07,11,03,54,12.30
2014,07,11,03,55,12.30
2014,07,11,03,56,12.30
2014,07,11,03,57,12.20
2014,07,11,03,58,12.20
2014,07,11,03,59,12.20
2014,07,11,04,00,12.20
2014,07,11,04,01,12.20
2014,07,11,04,02,12.20
2014,07,11,04,03,12.20
2014,07,11,04,04,12.20
2014,07,11,04,05,12.20
2014,07,11,04,06,12.20
2014,07,11,04,07,12.20
2014,07,11,04,08,12.20
2014,07,11,04,09,12.20
2014,07,11,04,10,12.20
2014,07,11,04,11,12.10
2014,07,11,04,12,12.10
2014,07,11,04,13,12.10
2014,07,11,04,14,12.10
2014,07,11,04,15,12.10
2014,07,11,04,16,12.10
2014,07,11,04,17,12.10
2014,07,11,04,18,12.10
2014,07,11,04,19,12.10
2014,07,11,04,20,12.10
2014,07,11,04,21,12.10
2014,07,11,04,22,12.10
2014,07,11,04,23,12.10
2014,07,11,04,24,12.10
2014,07,11,04,25,12.00
2014,07,11,04,26,12.00
2014,07,11,04,27,12.00
2014,07,11,04,28,12.00
2014,07,11,04,29,12.00
2014,07,11,04,30,12.00
2014,07,11,04,31,12.00
2014,07,11,04,32,12.00
2014,07,11,04,33,12.00
2014,07,11,04,34,12.00
2014,07,11,04,35,11.90
2014,07,11,04,36,11.90
2014,07,11,04,37,11.90
2014,07,11,04,38,11.90
2014,07,11,04,39,11.90
2014,07,11,04,40,11.90
2014,07,11,04,41,11.90
2014,07,11,04,42,11.90
2014,07,11,04,43,11.80
2014,07,11,04,44,11.80
2014,07,11,04,45,11.80
2014,07,11,04,46,11.80
2014,07,11,04,47,11.80
2014,07,11,04,48,11.80
2014,07,11,04,49,11.80
2014,07,11,04,50,11.80
2014,07,11,04,51,11.80
2014,07,11,04,52,11.70
2014,07,11,04,53,11.70
2014,07,11,04,54,11.70
2014,07,11,04,55,11.70
2014,07,11,04,56,11.70
2014,07,11,04,57,11.70
2014,07,11,04,58,11.70
2014,07,11,04,59,11.70
2014,07,11,05,00,11.70
2014,07,11,05,01,11.70
2014,07,11,05,02,11.70
2014,07,11,05,03,11.70
2014,07,11,05,04,11.70
2014,07,11,05,05,11.70
2014,07,11,05,06,11.70
2014,07,11,05,07,11.60
2014,07,11,05,08,11.70
2014,07,11,05,09,11.60
2014,07,11,05,10,11.60
2014,07,11,05,11,11.70
2014,07,11,05,12,11.70
2014,07,11,05,13,11.70
2014,07,11,05,14,11.70
2014,07,11,05,15,11.70
2014,07,11,05,16,11.70
2014,07,11,05,17,11.70
2014,07,11,05,18,11.70
2014,07,11,05,19,11.70
2014,07,11,05,20,11.70
2014,07,11,05,21,11.70
2014,07,11,05,22,11.70
2014,07,11,05,23,11.70
2014,07,11,05,24,11.70
2014,07,11,05,25,11.70
2014,07,11,05,26,11.70
2014,07,11,05,27,11.70
2014,07,11,05,28,11.70
2014,07,11,05,29,11.70
2014,07,11,05,30,11.70
2014,07,11,05,31,11.70
2014,07,11,05,32,11.70
2014,07,11,05,33,11.70
2014,07,11,05,34,11.70
2014,07,11,05,35,11.60
2014,07,11,05,36,11.60
2014,07,11,05,37,11.60
2014,07,11,05,38,11.60
2014,07,11,05,39,11.60
2014,07,11,05,40,11.60
2014,07,11,05,41,11.60
2014,07,11,05,42,11.60
2014,07,11,05,43,11.50
2014,07,11,05,44,11.60
2014,07,11,05,45,11.50
2014,07,11,05,46,11.50
2014,07,11,05,47,11.50
2014,07,11,05,48,11.50
2014,07,11,05,49,11.50
2014,07,11,05,50,11.50
2014,07,11,05,51,11.50
2014,07,11,05,52,11.50
2014,07,11,05,53,11.50
2014,07,11,05,54,11.50
2014,07,11,05,55,11.50
2014,07,11,05,56,11.50
2014,07,11,05,57,11.60
2014,07,11,05,58,11.60
2014,07,11,05,59,11.60
2014,07,11,06,00,11.60
2014,07,11,06,01,11.60
2014,07,11,06,02,11.60
2014,07,11,06,03,11.60
2014,07,11,06,04,11.60
2014,07,11,06,05,11.60
2014,07,11,06,06,11.60
2014,07,11,06,07,11.70
2014,07,11,06,08,11.70
2014,07,11,06,09,11.70
2014,07,11,06,10,11.70
2014,07,11,06,11,11.70
2014,07,11,06,12,11.70
2014,07,11,06,13,11.70
2014,07,11,06,14,11.70
2014,07,11,06,15,11.80
2014,07,11,06,16,11.80
2014,07,11,06,17,11.80
2014,07,11,06,18,11.80
2014,07,11,06,19,11.80
2014,07,11,06,20,11.80
2014,07,11,06,21,11.80
2014,07,11,06,22,11.90
2014,07,11,06,23,11.90
2014,07,11,06,24,11.90
2014,07,11,06,25,11.90
2014,07,11,06,26,11.90
2014,07,11,06,27,11.90
2014,07,11,06,28,12.00
2014,07,11,06,29,12.00
2014,07,11,06,30,12.10
2014,07,11,06,31,12.10
2014,07,11,06,32,12.20
2014,07,11,06,33,12.20
2014,07,11,06,34,12.30
2014,07,11,06,35,12.30
2014,07,11,06,36,12.40
2014,07,11,06,37,12.50
2014,07,11,06,38,12.50
2014,07,11,06,39,12.60
2014,07,11,06,40,12.70
2014,07,11,06,41,12.70
2014,07,11,06,42,12.80
2014,07,11,06,43,12.90
2014,07,11,06,44,12.90
2014,07,11,06,45,13.00
2014,07,11,06,46,13.10
2014,07,11,06,47,13.10
2014,07,11,06,48,13.20
2014,07,11,06,49,13.30
2014,07,11,06,50,13.40
2014,07,11,06,51,13.40
2014,07,11,06,52,13.50
2014,07,11,06,53,13.60
2014,07,11,06,54,13.70
2014,07,11,06,55,13.70
2014,07,11,06,56,13.80
2014,07,11,06,57,13.90
2014,07,11,06,58,13.90
2014,07,11,06,59,14.00
2014,07,11,07,00,14.10
2014,07,11,07,01,14.10
2014,07,11,07,02,14.20
2014,07,11,07,03,14.20
2014,07,11,07,04,14.30
2014,07,11,07,05,14.30
2014,07,11,07,06,14.40
2014,07,11,07,07,14.50
2014,07,11,07,08,14.50
2014,07,11,07,09,14.60
2014,07,11,07,10,14.70
2014,07,11,07,11,14.70
2014,07,11,07,12,14.80
2014,07,11,07,13,14.80
2014,07,11,07,14,14.80
2014,07,11,07,15,14.90
2014,07,11,07,16,15.00
2014,07,11,07,17,15.10
2014,07,11,07,18,15.20
2014,07,11,07,19,15.20
2014,07,11,07,20,15.30
2014,07,11,07,21,15.40
2014,07,11,07,22,15.50
2014,07,11,07,23,15.60
2014,07,11,07,24,15.60
2014,07,11,07,25,15.70
2014,07,11,07,26,15.80
2014,07,11,07,27,15.80
2014,07,11,07,28,15.90
2014,07,11,07,29,15.90
2014,07,11,07,30,15.90
2014,07,11,07,31,15.90
2014,07,11,07,32,16.00
2014,07,11,07,33,16.00
2014,07,11,07,34,16.10
2014,07,11,07,35,16.20
2014,07,11,07,36,16.20
2014,07,11,07,37,16.30
2014,07,11,07,38,16.40
2014,07,11,07,39,16.50
2014,07,11,07,40,16.60
2014,07,11,07,41,16.70
2014,07,11,07,42,16.70
2014,07,11,07,43,16.80
2014,07,11,07,44,16.80
2014,07,11,07,45,16.80
2014,07,11,07,46,16.90
2014,07,11,07,47,17.00
2014,07,11,07,48,17.10
2014,07,11,07,49,17.10
2014,07,11,07,50,17.20
2014,07,11,07,51,17.30
2014,07,11,07,52,17.40
2014,07,11,07,53,17.50
2014,07,11,07,54,17.60
2014,07,11,07,55,17.70
2014,07,11,07,56,17.70
2014,07,11,07,57,17.80
2014,07,11,07,58,17.80
2014,07,11,07,59,17.90
2014,07,11,08,00,18.00
2014,07,11,08,01,18.10
2014,07,11,08,02,18.20
2014,07,11,08,03,18.40
2014,07,11,08,04,18.50
2014,07,11,08,05,18.60
2014,07,11,08,06,18.70
2014,07,11,08,07,18.80
2014,07,11,08,08,18.90
2014,07,11,08,09,19.00
2014,07,11,08,10,19.10
2014,07,11,08,11,19.20
2014,07,11,08,12,19.20
2014,07,11,08,13,19.30
2014,07,11,08,14,19.50
2014,07,11,08,15,19.60
2014,07,11,08,16,19.70
2014,07,11,08,17,19.80
2014,07,11,08,18,19.90
2014,07,11,08,19,20.00
2014,07,11,08,20,20.00
2014,07,11,08,21,20.10
2014,07,11,08,22,20.20
2014,07,11,08,23,20.30
2014,07,11,08,24,20.40
2014,07,11,08,25,20.50
2014,07,11,08,26,20.60
2014,07,11,08,27,20.60
2014,07,11,08,28,20.70
2014,07,11,08,29,20.80
2014,07,11,08,30,20.80
2014,07,11,08,31,20.80
2014,07,11,08,32,20.80
2014,07,11,08,33,20.90
2014,07,11,08,34,20.90
2014,07,11,08,35,21.00
2014,07,11,08,36,21.00
2014,07,11,08,37,21.10
2014,07,11,08,38,21.10
2014,07,11,08,39,21.20
2014,07,11,08,40,21.30
2014,07,11,08,41,21.30
2014,07,11,08,42,21.40
2014,07,11,08,43,21.50
2014,07,11,08,44,21.70
2014,07,11,08,45,21.80
2014,07,11,08,46,21.90
2014,07,11,08,47,22.00
2014,07,11,08,48,22.10
2014,07,11,08,49,22.30
2014,07,11,08,50,22.40
2014,07,11,08,51,22.50
2014,07,11,08,52,22.60
2014,07,11,08,53,22.70
2014,07,11,08,54,22.70
2014,07,11,08,55,22.80
2014,07,11,08,56,22.80
2014,07,11,08,57,22.90
2014,07,11,08,58,23.00
2014,07,11,08,59,23.00
2014,07,11,09,00,23.10
2014,07,11,09,01,23.20
2014,07,11,09,02,23.30
2014,07,11,09,03,23.30
2014,07,11,09,04,23.40
2014,07,11,09,05,23.40
2014,07,11,09,06,23.40
2014,07,11,09,07,23.50
2014,07,11,09,08,23.50
2014,07,11,09,09,23.60
2014,07,11,09,10,23.60
2014,07,11,09,11,23.60
2014,07,11,09,12,23.70
2014,07,11,09,13,23.70
2014,07,11,09,14,23.80
2014,07,11,09,15,23.80
2014,07,11,09,16,23.90
2014,07,11,09,17,24.00
2014,07,11,09,18,24.00
2014,07,11,09,19,24.10
2014,07,11,09,20,24.10
2014,07,11,09,21,24.20
2014,07,11,09,22,24.20
2014,07,11,09,23,24.20
2014,07,11,09,24,24.20
2014,07,11,09,25,24.20
2014,07,11,09,26,24.20
2014,07,11,09,27,24.10
2014,07,11,09,28,24.00
2014,07,11,09,29,24.00
2014,07,11,09,30,23.80
2014,07,11,09,31,23.70
2014,07,11,09,32,23.60
2014,07,11,09,33,23.60
2014,07,11,09,34,23.60
2014,07,11,09,35,23.60
2014,07,11,09,36,23.60
2014,07,11,09,37,23.70
2014,07,11,09,38,23.80
2014,07,11,09,39,23.90
2014,07,11,09,40,24.00
2014,07,11,09,41,24.00
2014,07,11,09,42,24.10
2014,07,11,09,43,24.10
2014,07,11,09,44,24.10
2014,07,11,09,45,24.00
2014,07,11,09,46,24.00
2014,07,11,09,47,23.90
2014,07,11,09,48,24.00
2014,07,11,09,49,24.00
2014,07,11,09,50,24.10
2014,07,11,09,51,24.20
2014,07,11,09,52,24.20
2014,07,11,09,53,24.20
2014,07,11,09,54,24.20
2014,07,11,09,55,24.20
2014,07,11,09,56,24.20
2014,07,11,09,57,24.20
2014,07,11,09,58,24.20
2014,07,11,09,59,24.20
2014,07,11,10,00,24.30
2014,07,11,10,01,24.20
2014,07,11,10,02,24.20
2014,07,11,10,03,24.20
2014,07,11,10,04,24.20
2014,07,11,10,05,24.20
2014,07,11,10,06,24.20
2014,07,11,10,07,24.20
2014,07,11,10,08,24.30
2014,07,11,10,09,24.40
2014,07,11,10,10,24.50
2014,07,11,10,11,24.50
2014,07,11,10,12,24.60
2014,07,11,10,13,24.60
2014,07,11,10,14,24.70
2014,07,11,10,15,24.80
2014,07,11,10,16,24.80
2014,07,11,10,17,24.90
2014,07,11,10,18,25.00
2014,07,11,10,19,25.10
2014,07,11,10,20,25.10
2014,07,11,10,21,25.20
2014,07,11,10,22,25.20
2014,07,11,10,23,25.30
2014,07,11,10,24,25.40
2014,07,11,10,25,25.40
2014,07,11,10,26,25.40
2014,07,11,10,27,25.30
2014,07,11,10,28,25.30
2014,07,11,10,29,25.30
2014,07,11,10,30,25.40
2014,07,11,10,31,25.40
2014,07,11,10,32,25.40
2014,07,11,10,33,25.50
2014,07,11,10,34,25.60
2014,07,11,10,35,25.60
2014,07,11,10,36,25.70
2014,07,11,10,37,25.70
2014,07,11,10,38,25.80
2014,07,11,10,39,25.70
2014,07,11,10,40,25.70
2014,07,11,10,41,25.70
2014,07,11,10,42,25.70
2014,07,11,10,43,25.70
2014,07,11,10,44,25.80
2014,07,11,10,45,25.80
2014,07,11,10,46,25.80
2014,07,11,10,47,25.80
2014,07,11,10,48,25.70
2014,07,11,10,49,25.70
2014,07,11,10,50,25.80
2014,07,11,10,51,25.90
2014,07,11,10,52,26.00
2014,07,11,10,53,26.20
2014,07,11,10,54,26.30
2014,07,11,10,55,26.30
2014,07,11,10,56,26.30
2014,07,11,10,57,26.30
2014,07,11,10,58,26.40
2014,07,11,10,59,26.40
2014,07,11,11,00,26.40
2014,07,11,11,01,26.40
2014,07,11,11,02,26.50
2014,07,11,11,03,26.60
2014,07,11,11,04,26.70
2014,07,11,11,05,26.70
2014,07,11,11,06,26.80
2014,07,11,11,07,26.90
2014,07,11,11,08,26.90
2014,07,11,11,09,27.00
2014,07,11,11,10,26.90
2014,07,11,11,11,26.90
2014,07,11,11,12,26.90
2014,07,11,11,13,26.90
2014,07,11,11,14,27.00
2014,07,11,11,15,27.00
2014,07,11,11,16,27.10
2014,07,11,11,17,27.00
2014,07,11,11,18,26.90
2014,07,11,11,19,26.80
2014,07,11,11,20,26.80
2014,07,11,11,21,26.80
2014,07,11,11,22,26.90
2014,07,11,11,23,27.00
2014,07,11,11,24,27.10
2014,07,11,11,25,27.20
2014,07,11,11,26,27.20
2014,07,11,11,27,27.30
2014,07,11,11,28,27.30
2014,07,11,11,29,27.30
2014,07,11,11,30,27.30
2014,07,11,11,31,27.30
2014,07,11,11,32,27.30
2014,07,11,11,33,27.30
2014,07,11,11,34,27.30
2014,07,11,11,35,27.30
2014,07,11,11,36,27.40
2014,07,11,11,37,27.50
2014,07,11,11,38,27.70
2014,07,11,11,39,27.80
2014,07,11,11,40,27.90
2014,07,11,11,41,28.00
2014,07,11,11,42,28.20
2014,07,11,11,43,28.30
2014,07,11,11,44,28.30
2014,07,11,11,45,28.40
2014,07,11,11,46,28.40
2014,07,11,11,47,28.40
2014,07,11,11,48,28.50
2014,07,11,11,49,28.60
2014,07,11,11,50,28.60
2014,07,11,11,51,28.70
2014,07,11,11,52,28.80
2014,07,11,11,53,28.90
2014,07,11,11,54,28.90
2014,07,11,11,55,29.00
2014,07,11,11,56,29.10
2014,07,11,11,57,29.10
2014,07,11,11,58,29.10
2014,07,11,11,59,29.10
2014,07,11,12,00,29.10
2014,07,11,12,01,29.00
2014,07,11,12,02,29.00
2014,07,11,12,03,29.00
2014,07,11,12,04,28.90
2014,07,11,12,05,28.90
2014,07,11,12,06,28.80
2014,07,11,12,07,28.80
2014,07,11,12,08,28.80
2014,07,11,12,09,28.80
2014,07,11,12,10,28.60
2014,07,11,12,11,28.50
2014,07,11,12,12,28.50
2014,07,11,12,13,28.40
2014,07,11,12,14,28.30
2014,07,11,12,15,28.20
2014,07,11,12,16,28.20
2014,07,11,12,17,28.10
2014,07,11,12,18,28.00
2014,07,11,12,19,27.80
2014,07,11,12,20,27.80
2014,07,11,12,21,27.70
2014,07,11,12,22,27.60
2014,07,11,12,23,27.50
2014,07,11,12,24,27.50
2014,07,11,12,25,27.50
2014,07,11,12,26,27.60
2014,07,11,12,27,27.60
2014,07,11,12,28,27.70
2014,07,11,12,29,27.80
2014,07,11,12,30,28.00
2014,07,11,12,31,28.10
2014,07,11,12,32,28.30
2014,07,11,12,33,28.20
2014,07,11,12,34,28.20
2014,07,11,12,35,28.20
2014,07,11,12,36,28.20
2014,07,11,12,37,28.20
2014,07,11,12,38,28.20
2014,07,11,12,39,28.30
2014,07,11,12,40,28.30
2014,07,11,12,41,28.40
2014,07,11,12,42,28.50
2014,07,11,12,43,28.60
2014,07,11,12,44,28.70
2014,07,11,12,45,28.80
2014,07,11,12,46,28.80
2014,07,11,12,47,28.80
2014,07,11,12,48,28.80
2014,07,11,12,49,28.80
2014,07,11,12,50,28.80
2014,07,11,12,51,28.80
2014,07,11,12,52,28.70
2014,07,11,12,53,28.60
2014,07,11,12,54,28.50
2014,07,11,12,55,28.50
2014,07,11,12,56,28.50
2014,07,11,12,57,28.60
2014,07,11,12,58,28.60
2014,07,11,12,59,28.70
2014,07,11,13,00,28.90
2014,07,11,13,01,28.90
2014,07,11,13,02,29.00
2014,07,11,13,03,29.10
2014,07,11,13,04,29.10
2014,07,11,13,05,29.10
2014,07,11,13,06,29.00
2014,07,11,13,07,28.90
2014,07,11,13,08,28.80
2014,07,11,13,09,28.70
2014,07,11,13,10,28.60
2014,07,11,13,11,28.60
2014,07,11,13,12,28.60
2014,07,11,13,13,28.70
2014,07,11,13,14,28.80
2014,07,11,13,15,28.90
2014,07,11,13,16,29.00
2014,07,11,13,17,29.00
2014,07,11,13,18,29.10
2014,07,11,13,19,29.20
2014,07,11,13,20,29.10
2014,07,11,13,21,29.10
2014,07,11,13,22,29.00
2014,07,11,13,23,28.90
2014,07,11,13,24,28.90
2014,07,11,13,25,28.90
2014,07,11,13,26,29.00
2014,07,11,13,27,29.00
2014,07,11,13,28,29.10
2014,07,11,13,29,29.20
2014,07,11,13,30,29.20
2014,07,11,13,31,29.20
2014,07,11,13,32,29.20
2014,07,11,13,33,29.10
2014,07,11,13,34,28.90
2014,07,11,13,35,28.80
2014,07,11,13,36,28.80
2014,07,11,13,37,28.70
2014,07,11,13,38,28.60
2014,07,11,13,39,28.50
2014,07,11,13,40,28.40
2014,07,11,13,41,28.30
2014,07,11,13,42,28.20
2014,07,11,13,43,28.10
2014,07,11,13,44,28.10
2014,07,11,13,45,28.10
2014,07,11,13,46,28.20
2014,07,11,13,47,28.20
2014,07,11,13,48,28.20
2014,07,11,13,49,28.20
2014,07,11,13,50,28.10
2014,07,11,13,51,28.10
2014,07,11,13,52,28.10
2014,07,11,13,53,28.00
2014,07,11,13,54,27.90
2014,07,11,13,55,27.90
2014,07,11,13,56,27.80
2014,07,11,13,57,27.80
2014,07,11,13,58,27.90
2014,07,11,13,59,28.00
2014,07,11,14,00,28.10
2014,07,11,14,01,28.30
2014,07,11,14,02,28.40
2014,07,11,14,03,28.50
2014,07,11,14,04,28.60
2014,07,11,14,05,28.60
2014,07,11,14,06,28.60
2014,07,11,14,07,28.60
2014,07,11,14,08,28.60
2014,07,11,14,09,28.60
2014,07,11,14,10,28.60
2014,07,11,14,11,28.60
2014,07,11,14,12,28.60
2014,07,11,14,13,28.50
2014,07,11,14,14,28.50
2014,07,11,14,15,28.50
2014,07,11,14,16,28.60
2014,07,11,14,17,28.70
2014,07,11,14,18,28.70
2014,07,11,14,19,28.70
2014,07,11,14,20,28.70
2014,07,11,14,21,28.80
2014,07,11,14,22,28.90
2014,07,11,14,23,29.10
2014,07,11,14,24,29.20
2014,07,11,14,25,29.40
2014,07,11,14,26,29.60
2014,07,11,14,27,29.70
2014,07,11,14,28,29.80
2014,07,11,14,29,29.90
2014,07,11,14,30,30.00
2014,07,11,14,31,30.10
2014,07,11,14,32,30.20
2014,07,11,14,33,30.30
2014,07,11,14,34,30.30
2014,07,11,14,35,30.40
2014,07,11,14,36,30.40
2014,07,11,14,37,30.50
2014,07,11,14,38,30.50
2014,07,11,14,39,30.60
2014,07,11,14,40,30.50
2014,07,11,14,41,30.50
2014,07,11,14,42,30.60
2014,07,11,14,43,30.60
2014,07,11,14,44,30.50
2014,07,11,14,45,30.40
2014,07,11,14,46,30.30
2014,07,11,14,47,30.30
2014,07,11,14,48,30.20
2014,07,11,14,49,30.20
2014,07,11,14,50,30.10
2014,07,11,14,51,30.00
2014,07,11,14,52,29.90
2014,07,11,14,53,29.80
2014,07,11,14,54,29.80
2014,07,11,14,55,29.70
2014,07,11,14,56,29.80
2014,07,11,14,57,29.80
2014,07,11,14,58,29.90
2014,07,11,14,59,29.90
2014,07,11,15,00,29.90
2014,07,11,15,01,29.80
2014,07,11,15,02,29.70
2014,07,11,15,03,29.60
2014,07,11,15,04,29.50
2014,07,11,15,05,29.40
2014,07,11,15,06,29.40
2014,07,11,15,07,29.40
2014,07,11,15,08,29.40
2014,07,11,15,09,29.40
2014,07,11,15,10,29.40
2014,07,11,15,11,29.50
2014,07,11,15,12,29.50
2014,07,11,15,13,29.40
2014,07,11,15,14,29.30
2014,07,11,15,15,29.10
2014,07,11,15,16,29.00
2014,07,11,15,17,29.00
2014,07,11,15,18,29.00
2014,07,11,15,19,29.10
2014,07,11,15,20,29.20
2014,07,11,15,21,29.30
2014,07,11,15,22,29.30
2014,07,11,15,23,29.30
2014,07,11,15,24,29.20
2014,07,11,15,25,29.20
2014,07,11,15,26,29.10
2014,07,11,15,27,29.10
2014,07,11,15,28,29.00
2014,07,11,15,29,28.90
2014,07,11,15,30,28.90
2014,07,11,15,31,28.90
2014,07,11,15,32,28.80
2014,07,11,15,33,28.70
2014,07,11,15,34,28.70
2014,07,11,15,35,28.70
2014,07,11,15,36,28.70
2014,07,11,15,37,28.70
2014,07,11,15,38,28.60
2014,07,11,15,39,28.60
2014,07,11,15,40,28.50
2014,07,11,15,41,28.50
2014,07,11,15,42,28.40
2014,07,11,15,43,28.40
2014,07,11,15,44,28.40
2014,07,11,15,45,28.30
2014,07,11,15,46,28.30
2014,07,11,15,47,28.30
2014,07,11,15,48,28.30
2014,07,11,15,49,28.40
2014,07,11,15,50,28.40
2014,07,11,15,51,28.50
2014,07,11,15,52,28.50
2014,07,11,15,53,28.50
2014,07,11,15,54,28.60
2014,07,11,15,55,28.60
2014,07,11,15,56,28.70
2014,07,11,15,57,28.70
2014,07,11,15,58,28.80
2014,07,11,15,59,28.90
2014,07,11,16,00,28.90
2014,07,11,16,01,28.90
2014,07,11,16,02,29.00
2014,07,11,16,03,29.10
2014,07,11,16,04,29.10
2014,07,11,16,05,29.10
2014,07,11,16,06,29.10
2014,07,11,16,07,29.10
2014,07,11,16,08,29.00
2014,07,11,16,09,29.00
2014,07,11,16,10,28.90
2014,07,11,16,11,28.90
2014,07,11,16,12,28.90
2014,07,11,16,13,28.90
2014,07,11,16,14,28.90
2014,07,11,16,15,28.90
2014,07,11,16,16,29.00
2014,07,11,16,17,28.90
2014,07,11,16,18,28.80
2014,07,11,16,19,28.80
2014,07,11,16,20,28.80
2014,07,11,16,21,28.80
2014,07,11,16,22,28.90
2014,07,11,16,23,28.90
2014,07,11,16,24,28.90
2014,07,11,16,25,28.80
2014,07,11,16,26,28.80
2014,07,11,16,27,28.70
2014,07,11,16,28,28.70
2014,07,11,16,29,28.70
2014,07,11,16,30,28.60
2014,07,11,16,31,28.60
2014,07,11,16,32,28.60
2014,07,11,16,33,28.60
2014,07,11,16,34,28.60
2014,07,11,16,35,28.60
2014,07,11,16,36,28.70
2014,07,11,16,37,28.60
2014,07,11,16,38,28.60
2014,07,11,16,39,28.60
2014,07,11,16,40,28.60
2014,07,11,16,41,28.50
2014,07,11,16,42,28.40
2014,07,11,16,43,28.40
2014,07,11,16,44,28.40
2014,07,11,16,45,28.40
2014,07,11,16,46,28.30
2014,07,11,16,47,28.30
2014,07,11,16,48,28.30
2014,07,11,16,49,28.30
2014,07,11,16,50,28.40
2014,07,11,16,51,28.40
2014,07,11,16,52,28.50
2014,07,11,16,53,28.50
2014,07,11,16,54,28.60
2014,07,11,16,55,28.60
2014,07,11,16,56,28.60
2014,07,11,16,57,28.60
2014,07,11,16,58,28.70
2014,07,11,16,59,28.70
2014,07,11,17,00,28.80
2014,07,11,17,01,28.90
2014,07,11,17,02,29.00
2014,07,11,17,03,29.10
2014,07,11,17,04,29.10
2014,07,11,17,05,29.10
2014,07,11,17,06,29.10
2014,07,11,17,07,29.10
2014,07,11,17,08,29.10
2014,07,11,17,09,29.00
2014,07,11,17,10,28.90
2014,07,11,17,11,28.80
2014,07,11,17,12,28.70
2014,07,11,17,13,28.60
2014,07,11,17,14,28.50
2014,07,11,17,15,28.30
2014,07,11,17,16,28.20
2014,07,11,17,17,28.00
2014,07,11,17,18,27.90
2014,07,11,17,19,27.80